Weather past 2 weeks in Willemstad, Curaçao

Now
79 °F

Passing clouds.


Feels Like: 81 °F
Forecast: 79 / 85 °F
Wind: 14 mph from Southeast

Location: Hato Airport - Curacao

Current Time: Mar 2, 2015 at 7:38:12 AM

Latest Report: Mar 2, 2015 at 6:00 AM


Visibility: N/A

Pressure: 29.95 "Hg

Humidity: 74%

Dew point: 70 °F

Location of WillemstadLocation

Historic Weather in Willemstad — Graph

°F

Willemstad temperature yesterday

Maximum temperature yesterday: 86 °F (at 11:00 AM)
Minimum temperature yesterday: 73 °F (at 10:00 PM)
Average temperature yesterday: 80 °F

Past Weeks' High & Low Weather Summary

 TemperatureHumidityPressure
High90 °F (Feb 15, 3:00 PM)94% (Mar 1, 10:00 PM)30.07 "Hg (Mar 1, 10:00 PM)
Low73 °F (Mar 1, 10:00 PM)49% (Feb 25, 3:00 PM)29.86 "Hg (Feb 19, 4:00 PM)
Average82 °F73%29.95 "Hg
* Reported Feb 15 6:00 AM — Mar 2 6:00 AM, Willemstad, Weather by CustomWeather, © 2015

Note: Actual official high and low records may vary slightly from our data, if they occured in-between our weather recording intervals... More about our weather records

Advertising

Willemstad weather history for previous 24 hours

 ConditionsComfort  
Time TempWeatherWind HumidityBarometerVisibility
6:00 AM
Mon, Mar 2
79 °FPassing clouds.14 mph74%29.95 "HgN/A
5:00 AM77 °FPassing clouds.15 mph83%29.95 "HgN/A
2:00 AM79 °FPassing clouds.9 mph84%29.98 "HgN/A
1:00 AM77 °FPassing clouds.13 mph89%29.98 "HgN/A
12:00 AM77 °FPassing clouds.12 mph89%30.01 "HgN/A
11:00 PM
Sun, Mar 1
77 °FPassing clouds.15 mph83%30.01 "HgN/A
10:00 PM73 °FPassing clouds.21 mph94%30.04 "HgN/A
9:00 PM77 °FPassing clouds.8 mph83%29.98 "HgN/A
8:00 PM79 °FPassing clouds.12 mph84%29.98 "HgN/A
7:00 PM79 °FPassing clouds.10 mph79%29.95 "HgN/A
6:00 PM77 °FPassing clouds.9 mph83%29.95 "HgN/A
5:00 PM75 °FScattered clouds.21 mph83%29.98 "Hg6 mi
4:00 PM82 °FScattered clouds.15 mph66%29.95 "HgN/A
3:00 PM82 °FScattered clouds.16 mph66%29.98 "HgN/A
2:00 PM82 °FScattered clouds.14 mph66%30.01 "HgN/A
1:00 PM86 °FScattered clouds.14 mph62%30.01 "HgN/A
12:00 PM86 °FPassing clouds.13 mph59%30.04 "HgN/A
11:00 AM86 °FPassing clouds.14 mph55%30.07 "HgN/A
10:00 AM84 °FPassing clouds.13 mph62%30.07 "HgN/A
8:00 AM81 °FPassing clouds.14 mph70%30.04 "HgN/A
7:00 AM79 °FPassing clouds.15 mph79%29.98 "HgN/A
Weather by CustomWeather, © 2015

See weather overviewHow to use our weather pages